Wind_Speed
75 75 76 76 77 77 77 77 77 78 78 78 79 79 80 80 80 81 81 82 82 82 83 83 85 86 88 89 89 88 88 87 87 87 87 87 87 87 87 87 88 88 88 89 89 89 89 89 88 88 87 87
78 78 78 79 79 80 80 80 80 80 80 80 80 81 81 81 82 82 83 84 84 85 85 85 86 87 89 90 91 91 91 91 91 91 91 91 91 91 91 91 91 91 92 92 92 92 92 92 92 92 91 91
81 81 82 82 82 83 83 83 83 83 83 83 83 83 83 84 84 84 85 85 86 87 87 88 88 89 90 91 93 93 94 94 94 94 94 94 94 94 94 94 94 94 95 95 95 95 95 95 95 95 95 94
83 84 84 85 85 85 85 85 85 86 86 86 86 86 86 86 87 87 87 88 88 89 89 90 90 91 92 93 94 95 95 96 96 96 96 97 97 97 98 98 97 97 97 98 98 98 98 98 98 98 98 97
86 86 87 87 88 88 88 88 89 89 89 89 89 89 89 89 90 90 91 91 91 92 92 92 93 93 94 95 95 96 96 97 98 98 99 99 100 100 101 101 101 101 101 101 101 101 101 101 100 100 100 100
88 88 89 90 90 91 91 92 92 92 92 92 92 92 92 93 93 93 94 94 94 95 95 96 96 96 97 98 98 99 99 100 100 101 102 103 103 104 104 105 105 105 105 104 104 104 104 104 103 103 103 103
90 90 91 92 93 94 94 95 95 96 96 96 96 96 96 96 96 97 97 97 98 98 99 99 100 100 101 102 103 103 104 105 106 106 107 107 108 108 108 108 108 108 108 108 107 107 107 107 107 106 106 106
92 93 94 94 95 96 97 97 98 99 99 99 100 100 100 100 100 100 101 101 101 102 102 102 103 103 104 105 106 107 108 108 109 110 111 111 112 112 112 112 112 112 112 112 111 111 111 111 111 110 110 109
94 95 96 96 97 98 99 99 100 101 101 102 102 103 103 104 104 104 104 104 105 105 106 106 106 107 107 108 108 109 110 111 111 112 113 113 114 114 115 115 116 116 116 116 115 115 114 114 114 114 114 113
96 97 98 98 99 100 100 101 102 103 103 104 105 105 106 106 107 107 107 108 108 109 109 110 110 110 111 111 111 112 112 113 114 114 115 115 116 116 117 117 118 118 118 118 118 118 118 117 117 117 117 117
98 99 100 101 101 102 103 103 104 105 105 106 107 107 108 108 109 109 110 110 111 112 112 113 114 114 114 115 115 115 116 116 117 117 117 118 118 119 119 120 120 120 121 121 121 121 121 120 120 120 120 120
100 101 102 103 103 104 105 106 107 107 108 109 109 110 110 111 111 112 112 113 113 114 114 115 116 116 117 118 118 119 119 120 120 120 121 121 121 122 122 122 122 123 123 123 124 124 124 124 123 123 123 123
102 103 103 104 105 106 107 108 109 109 110 111 112 113 113 114 114 115 115 115 116 116 117 117 117 118 119 120 121 121 122 122 123 123 124 124 124 125 125 125 125 125 126 126 126 126 127 127 127 127 126 126
104 104 105 106 107 108 109 110 111 111 112 113 114 115 116 116 117 117 118 118 119 119 119 120 120 121 121 122 123 123 124 124 125 125 126 126 127 127 128 128 128 128 128 128 128 128 129 129 129 129 129 129
106 107 108 109 110 111 112 113 114 114 115 116 117 117 118 119 119 120 120 121 121 122 122 122 123 123 124 124 125 125 126 126 127 127 128 128 129 129 130 130 130 130 130 131 131 131 131 131 131 131 131 130
110 111 112 113 114 115 116 117 117 118 119 120 121 121 122 123 123 124 124 124 125 125 125 126 126 126 127 127 127 128 128 129 129 129 130 131 131 131 132 132 133 133 133 133 134 134 134 134 134 134 134 133
114 115 116 117 118 119 120 121 122 123 123 124 125 126 126 127 128 128 129 129 129 129 130 130 130 131 131 131 131 132 132 132 132 132 133 133 133 134 134 135 135 135 135 136 136 137 137 137 137 137 137 137
117 119 120 121 122 123 124 125 126 127 128 128 129 130 131 132 132 133 133 134 134 134 135 135 135 135 136 136 136 136 136 136 136 136 136 137 137 137 137 137 137 137 138 138 139 139 139 140 140 140 141 141
120 121 122 123 124 126 127 128 129 130 131 132 133 134 135 136 137 137 138 138 139 139 140 140 141 141 141 141 141 141 141 141 141 141 141 141 141 141 141 141 141 141 141 141 142 142 142 142 142 143 143 143
122 123 124 125 126 128 129 130 131 132 133 134 135 136 137 138 139 140 141 142 143 143 144 145 146 146 146 147 147 147 147 147 146 146 146 146 146 146 146 146 146 146 146 146 146 146 146 146 146 146 146 146
124 125 127 128 129 130 131 132 133 134 135 136 138 139 140 141 142 143 143 144 145 146 147 148 149 149 150 151 151 152 152 152 152 152 152 152 152 151 151 151 151 150 150 150 150 150 151 150 150 150 150 150
125 126 127 128 129 130 131 132 133 134 135 136 137 139 140 141 142 143 144 145 147 148 149 150 151 152 153 154 154 155 156 156 157 157 157 157 157 157 157 156 156 156 155 155 155 155 155 155 155 155 155 154
122 123 124 124 125 126 126 127 128 128 129 130 132 133 134 136 137 138 140 141 143 145 146 148 150 152 153 155 156 157 158 158 159 160 160 161 161 162 162 162 162 161 161 161 160 160 160 160 160 160 159 159
117 117 118 119 119 120 121 121 122 123 123 124 126 127 128 130 131 132 133 135 136 138 140 142 144 147 149 151 153 155 157 158 160 161 162 163 163 164 165 165 165 165 165 165 165 166 166 166 165 165 164 164
112 113 113 114 115 116 117 118 119 119 120 121 123 124 125 126 127 128 129 130 131 133 135 137 139 141 144 146 148 150 152 154 156 158 159 161 163 164 165 167 168 168 168 168 168 169 170 170 170 170 170 170
111 112 112 113 114 115 117 118 119 119 120 122 123 124 124 125 126 126 127 127 128 129 131 133 134 137 139 141 143 145 147 149 151 153 154 156 158 160 162 164 166 168 169 169 170 170 171 172 173 174 174 174
111 112 113 114 115 116 117 119 120 120 122 122 123 124 125 126 126 127 127 127 128 128 129 130 131 133 134 136 137 139 142 144 146 148 150 151 153 155 157 159 161 163 165 166 167 169 170 172 174 175 176 176
112 113 114 115 116 117 118 119 120 121 122 123 124 125 125 126 127 127 127 128 128 128 129 130 130 131 132 133 134 135 136 138 140 142 144 146 148 150 152 154 156 158 160 161 163 165 166 168 170 172 174 176
111 112 113 113 114 115 116 117 117 118 118 120 120 121 122 122 123 124 125 126 126 127 128 128 129 130 131 132 133 133 134 135 136 137 139 140 142 144 146 148 150 153 155 157 159 160 162 164 165 166 169 171
106 107 108 109 109 109 110 110 110 110 110 111 112 113 113 115 116 117 119 120 121 122 123 124 125 127 128 130 130 131 132 133 134 135 136 137 138 139 141 142 144 146 149 151 153 155 157 159 161 162 164 165
100 101 102 102 102 102 102 102 102 102 102 103 104 104 105 106 108 109 111 112 113 115 116 117 119 121 123 124 125 127 128 129 131 133 134 135 136 137 138 139 140 141 144 146 148 150 152 154 155 156 158 160
Wind_Direction
254 254 254 254 254 254 254 254 254 254 254 253 253 253 253 252 252 251 251 251 250 249 249 248 248 247 246 245 245 245 245 244 245 245 246 247 247 247 248 249 250 251 251 252 253 254 254 254 255 255 255 255
255 255 255 255 255 255 255 255 255 255 254 254 254 254 253 253 253 252 252 251 251 251 250 249 249 248 247 246 246 245 245 245 245 245 246 246 247 247 247 248 249 250 250 251 252 252 253 253 254 254 254 254
256 256 255 255 255 255 255 255 255 254 254 254 254 254 253 253 253 252 252 251 250 250 250 249 249 248 247 247 246 246 246 246 246 246 246 246 247 247 248 248 248 248 249 250 250 251 252 252 253 253 254 254
255 256 256 256 256 255 255 255 255 254 254 254 254 253 253 253 253 252 252 251 251 250 249 249 248 248 247 246 246 246 246 246 247 247 247 248 248 249 249 249 249 249 249 249 250 250 250 251 251 252 252 253
254 255 255 256 256 256 256 255 255 255 254 254 254 253 253 253 252 252 252 252 251 251 250 250 249 248 247 246 246 246 246 247 247 248 248 249 249 250 250 251 251 251 250 250 250 250 250 250 250 251 251 252
254 254 255 255 255 256 256 256 256 255 255 255 254 254 253 253 253 252 252 252 252 252 251 251 250 249 248 248 247 247 248 248 248 248 249 249 250 251 251 252 252 252 252 251 251 251 250 250 250 249 250 250
255 255 255 255 255 255 255 255 255 255 255 255 255 255 254 254 253 253 253 252 252 252 251 251 251 251 250 249 249 249 249 250 250 250 251 251 251 251 252 252 252 252 252 252 252 251 251 251 251 250 250 250
256 256 256 256 256 256 256 256 256 256 255 255 255 255 255 254 254 254 253 253 253 252 252 252 251 251 251 250 250 250 250 251 251 251 252 252 252 252 252 252 252 253 252 252 252 252 252 252 251 251 251 250
258 258 257 257 257 257 257 257 257 257 257 256 256 256 255 255 255 254 254 253 253 253 253 252 252 252 251 251 251 251 251 251 251 251 251 252 252 253 253 253 253 253 253 253 253 252 252 252 252 252 251 251
260 260 260 259 259 259 259 259 258 258 258 258 257 257 257 256 256 255 255 254 254 253 253 253 253 252 252 252 251 251 251 251 251 251 251 251 252 252 252 253 253 253 253 253 253 253 252 252 252 252 252 252
263 263 262 262 262 261 261 261 260 260 260 259 259 259 258 258 258 257 257 256 256 255 254 254 253 253 253 253 252 252 252 251 251 251 251 251 251 251 252 252 252 253 253 253 253 253 253 253 252 252 252 252
266 265 265 265 265 264 264 263 263 263 262 262 261 261 260 260 260 259 259 258 258 257 256 256 255 254 254 253 253 253 252 252 252 252 252 252 251 251 252 252 252 252 252 253 253 253 253 253 252 252 252 252
267 267 267 267 266 266 266 265 265 265 264 264 264 263 263 262 262 261 261 260 259 259 258 258 257 257 256 255 255 254 254 253 253 253 253 252 252 252 252 252 252 252 252 253 253 253 253 253 253 253 253 252
269 268 268 268 268 267 267 267 266 266 266 266 265 265 265 264 264 263 263 262 262 261 260 260 259 258 258 257 257 256 255 255 254 254 254 254 253 253 253 253 253 253 253 253 253 253 253 254 253 253 253 253
269 269 269 269 269 268 268 268 268 267 267 267 266 266 266 265 265 265 264 264 264 263 263 262 261 261 260 259 258 258 257 256 256 255 255 255 255 254 254 254 254 254 254 254 254 254 254 254 254 254 254 254
270 270 269 269 269 269 269 269 268 268 268 268 267 267 267 266 266 265 265 265 264 264 264 263 263 262 262 261 261 260 259 259 258 257 256 256 255 255 255 255 254 254 254 254 254 254 254 254 254 254 254 254
270 270 270 270 270 269 269 269 269 268 268 268 267 267 267 267 266 266 266 265 265 265 264 264 263 263 262 262 262 261 261 260 260 259 259 258 257 256 255 255 255 254 254 254 254 254 254 254 254 254 254 254
270 270 269 269 269 269 268 268 268 268 267 267 267 266 266 266 266 266 265 265 265 265 264 264 264 263 263 262 262 261 261 261 260 260 260 259 259 258 258 257 256 255 255 254 254 254 254 254 254 254 254 254
270 270 270 270 269 269 269 269 268 268 268 267 267 267 266 266 266 265 265 265 265 264 264 264 263 263 263 263 262 262 261 261 260 260 260 259 259 259 258 258 258 257 257 256 255 255 254 254 254 253 253 253
272 271 271 271 271 270 270 270 270 269 269 269 268 268 267 267 267 266 266 265 265 265 264 264 264 263 263 263 262 262 262 261 261 260 260 259 259 258 258 258 257 257 257 257 257 257 256 255 255 254 254 253
273 273 273 272 272 272 272 271 271 271 270 270 269 269 269 268 268 267 267 266 266 265 265 265 264 264 263 263 263 262 262 261 261 261 260 260 259 259 258 258 258 257 257 256 256 256 256 256 256 256 255 255
274 274 274 273 273 273 273 272 272 272 272 271 271 270 270 269 269 268 268 267 267 266 266 266 265 265 264 264 263 263 262 262 261 261 260 260 260 259 259 258 258 258 257 257 256 256 256 256 256 256 256 256
274 274 274 274 273 273 273 273 272 272 272 272 271 271 271 270 270 269 269 268 268 267 267 266 266 265 265 264 264 264 263 263 262 262 261 261 260 260 259 259 258 258 258 257 257 257 256 256 256 255 255 255
273 273 273 273 273 272 272 272 272 271 271 271 271 271 270 270 270 269 269 269 268 268 268 267 266 266 265 265 264 264 264 263 263 262 262 261 261 260 260 260 259 258 258 257 257 257 257 256 256 256 255 255
273 273 273 273 273 273 273 273 272 272 272 272 271 271 271 270 270 269 269 268 268 268 267 267 267 266 266 265 265 265 264 264 263 263 262 262 261 261 261 260 260 259 259 258 258 257 257 257 256 256 256 256
274 274 274 274 274 274 274 273 273 273 273 272 272 272 272 271 271 271 270 269 269 268 268 267 266 266 265 265 265 264 264 264 264 263 263 262 262 262 261 261 260 260 259 259 258 258 258 257 257 257 256 256
275 275 275 275 274 274 274 273 273 273 272 272 272 271 271 271 270 270 270 269 269 269 268 268 268 267 266 266 265 265 264 264 263 263 263 262 262 262 262 261 261 261 260 260 259 258 258 258 257 257 257 257
276 276 275 275 275 274 274 274 273 273 272 272 271 271 270 270 269 269 268 268 268 267 267 267 267 267 267 267 266 266 265 265 264 264 263 262 262 262 262 261 261 261 260 260 260 259 259 258 258 257 257 257
277 277 277 276 276 275 275 274 274 274 273 272 272 271 270 270 269 269 268 268 267 266 266 266 265 265 265 265 265 265 265 265 265 265 264 264 263 262 262 261 261 261 261 260 260 259 259 258 258 257 257 257
279 278 278 277 277 277 276 276 275 275 274 273 273 272 271 271 270 269 269 268 268 267 266 266 265 265 265 264 264 264 264 264 264 264 264 264 264 263 263 262 262 261 261 261 260 259 259 258 258 257 257 257
281 281 281 281 280 280 279 278 278 277 276 276 275 274 273 273 272 271 271 270 269 268 268 267 267 266 266 265 265 264 264 264 264 263 263 263 263 263 263 263 262 262 262 261 261 260 259 259 258 257 257 257
Height
10742 10743 10744 10744 10745 10746 10746 10747 10748 10749 10750 10750 10750 10751 10751 10751 10751 10751 10751 10751 10751 10752 10753 10753 10754 10754 10754 10754 10755 10756 10757 10758 10759 10760 10761 10761 10762 10764 10766 10768 10769 10770 10771 10773 10773 10775 10776 10777 10778 10779 10780 10781
10734 10735 10735 10735 10736 10737 10737 10738 10739 10739 10740 10741 10741 10742 10742 10742 10742 10743 10743 10743 10743 10744 10745 10746 10746 10746 10747 10747 10747 10748 10749 10749 10750 10751 10751 10752 10752 10753 10755 10757 10758 10759 10760 10762 10763 10764 10765 10767 10768 10769 10770 10772
10726 10726 10726 10727 10727 10727 10728 10728 10729 10729 10730 10730 10731 10732 10732 10732 10732 10733 10733 10733 10733 10733 10734 10736 10737 10738 10738 10738 10739 10740 10741 10741 10742 10743 10743 10743 10743 10743 10744 10746 10748 10749 10750 10751 10752 10753 10755 10756 10758 10759 10760 10761
10718 10718 10718 10718 10718 10718 10718 10719 10719 10719 10720 10720 10721 10721 10722 10722 10722 10722 10722 10723 10723 10723 10724 10725 10726 10727 10728 10728 10729 10730 10731 10732 10733 10734 10734 10734 10735 10735 10735 10736 10737 10739 10740 10740 10741 10743 10744 10745 10747 10748 10749 10750
10708 10708 10708 10708 10708 10708 10708 10709 10709 10709 10709 10710 10710 10711 10711 10712 10712 10712 10712 10713 10713 10714 10714 10715 10715 10716 10717 10718 10718 10719 10720 10721 10722 10723 10724 10724 10725 10725 10725 10726 10727 10729 10730 10731 10731 10732 10733 10735 10736 10737 10739 10740
10699 10699 10698 10698 10698 10698 10698 10698 10698 10698 10699 10699 10699 10700 10700 10701 10701 10701 10701 10702 10702 10703 10703 10704 10705 10706 10707 10708 10708 10709 10709 10710 10710 10711 10712 10713 10713 10714 10714 10715 10716 10717 10719 10720 10721 10722 10723 10724 10725 10726 10728 10729
10689 10689 10689 10688 10688 10688 10687 10687 10687 10687 10687 10687 10688 10688 10688 10689 10689 10690 10690 10690 10691 10691 10692 10692 10693 10694 10695 10696 10697 10698 10698 10699 10699 10700 10700 10701 10701 10702 10702 10702 10703 10704 10706 10707 10709 10710 10711 10712 10714 10715 10716 10717
10680 10679 10679 10678 10677 10677 10677 10677 10676 10676 10676 10676 10676 10676 10677 10677 10678 10678 10678 10678 10679 10679 10679 10680 10680 10681 10682 10683 10684 10685 10686 10687 10687 10688 10688 10689 10689 10690 10690 10691 10691 10691 10692 10694 10696 10698 10699 10700 10701 10703 10704 10706
10670 10670 10669 10668 10668 10667 10667 10666 10666 10665 10665 10665 10665 10665 10665 10665 10665 10666 10666 10666 10666 10666 10666 10667 10667 10668 10669 10670 10671 10671 10672 10673 10674 10674 10675 10676 10676 10677 10677 10678 10679 10679 10679 10680 10682 10684 10686 10687 10688 10689 10691 10693
10660 10659 10659 10658 10657 10657 10656 10655 10655 10654 10653 10653 10653 10653 10653 10653 10653 10653 10653 10653 10653 10653 10653 10653 10654 10654 10655 10656 10657 10657 10658 10659 10659 10660 10661 10661 10662 10663 10664 10664 10665 10666 10667 10667 10668 10670 10671 10673 10675 10676 10677 10679
10649 10648 10648 10647 10646 10645 10644 10644 10643 10642 10641 10641 10640 10640 10640 10640 10640 10640 10640 10640 10640 10640 10640 10640 10640 10641 10641 10642 10642 10643 10643 10644 10645 10645 10646 10647 10648 10649 10650 10650 10651 10652 10653 10654 10654 10655 10657 10658 10660 10662 10663 10664
10637 10637 10636 10635 10634 10633 10632 10631 10630 10629 10629 10628 10627 10627 10626 10626 10626 10626 10626 10626 10626 10626 10626 10626 10627 10627 10627 10627 10628 10628 10629 10629 10630 10631 10631 10632 10633 10634 10635 10636 10637 10637 10638 10639 10640 10641 10642 10643 10645 10647 10648 10650
10625 10624 10623 10622 10621 10619 10618 10617 10616 10615 10614 10614 10613 10612 10612 10611 10611 10611 10611 10611 10611 10611 10611 10612 10612 10612 10612 10612 10612 10613 10614 10614 10615 10615 10616 10617 10618 10619 10620 10621 10622 10622 10623 10624 10625 10626 10626 10627 10629 10631 10633 10635
10612 10610 10609 10608 10607 10606 10604 10603 10602 10601 10600 10599 10598 10597 10596 10596 10595 10595 10595 10595 10595 10595 10596 10596 10596 10596 10596 10597 10597 10597 10598 10599 10599 10600 10601 10601 10602 10603 10604 10605 10606 10607 10608 10608 10610 10611 10611 10611 10612 10614 10616 10618
10598 10597 10596 10594 10593 10591 10590 10589 10588 10586 10585 10584 10583 10582 10581 10580 10579 10579 10579 10579 10579 10579 10579 10580 10580 10580 10580 10580 10580 10580 10581 10582 10583 10584 10585 10585 10586 10587 10587 10588 10589 10591 10591 10592 10593 10595 10596 10596 10596 10597 10599 10601
10585 10583 10582 10580 10578 10577 10575 10574 10572 10571 10569 10568 10567 10566 10565 10564 10563 10562 10562 10562 10562 10562 10562 10562 10562 10562 10562 10562 10562 10563 10564 10565 10566 10566 10567 10568 10569 10569 10570 10571 10572 10574 10575 10575 10576 10577 10578 10579 10580 10581 10582 10584
10571 10569 10567 10565 10563 10561 10560 10558 10557 10555 10553 10552 10551 10549 10548 10547 10546 10545 10544 10544 10544 10544 10544 10544 10544 10543 10544 10544 10544 10545 10546 10546 10547 10548 10549 10549 10550 10551 10552 10553 10554 10556 10557 10558 10558 10559 10560 10561 10562 10564 10565 10566
10556 10554 10552 10550 10547 10545 10543 10542 10540 10538 10536 10535 10533 10532 10531 10529 10528 10527 10526 10526 10526 10526 10525 10525 10524 10524 10524 10524 10525 10526 10527 10527 10528 10529 10529 10530 10531 10532 10533 10534 10535 10537 10538 10539 10540 10541 10541 10543 10544 10546 10547 10548
10540 10538 10536 10533 10531 10529 10527 10524 10522 10520 10518 10517 10515 10514 10512 10511 10510 10509 10508 10507 10507 10506 10505 10505 10504 10504 10504 10504 10504 10505 10506 10507 10508 10509 10509 10510 10511 10512 10513 10514 10516 10517 10519 10519 10520 10521 10522 10523 10524 10526 10528 10529
10524 10522 10519 10517 10514 10512 10510 10507 10505 10503 10501 10499 10496 10495 10493 10491 10490 10489 10488 10488 10487 10486 10485 10484 10484 10483 10483 10483 10483 10484 10485 10486 10486 10487 10487 10489 10490 10491 10492 10493 10495 10497 10499 10499 10500 10500 10501 10502 10504 10506 10507 10509
10508 10505 10503 10500 10497 10495 10492 10490 10487 10485 10482 10480 10477 10475 10473 10472 10471 10469 10469 10468 10467 10465 10464 10463 10462 10462 10461 10461 10461 10461 10462 10463 10463 10464 10465 10466 10468 10470 10471 10471 10473 10475 10477 10479 10479 10479 10480 10481 10483 10484 10485 10488
10492 10489 10486 10483 10480 10478 10475 10472 10469 10466 10464 10461 10458 10455 10453 10452 10450 10449 10448 10447 10445 10444 10443 10441 10440 10439 10439 10438 10438 10438 10438 10439 10439 10440 10441 10442 10443 10445 10447 10449 10451 10452 10454 10456 10457 10458 10458 10459 10461 10462 10464 10466
10477 10474 10470 10467 10464 10461 10458 10455 10452 10449 10446 10442 10439 10436 10433 10432 10430 10429 10428 10426 10424 10422 10420 10419 10417 10416 10415 10415 10414 10414 10414 10414 10414 10415 10416 10417 10418 10420 10421 10424 10427 10429 10431 10433 10433 10435 10435 10436 10438 10440 10443 10445
10462 10459 10455 10452 10448 10445 10442 10439 10436 10433 10430 10426 10422 10418 10415 10413 10412 10410 10408 10406 10404 10401 10399 10397 10395 10393 10392 10391 10390 10390 10390 10389 10389 10390 10391 10392 10393 10394 10395 10396 10400 10403 10406 10408 10409 10411 10411 10411 10414 10416 10419 10422
10447 10444 10440 10437 10433 10429 10426 10423 10420 10416 10413 10410 10406 10402 10398 10396 10394 10392 10390 10388 10385 10382 10379 10376 10374 10372 10370 10369 10368 10366 10366 10365 10365 10365 10366 10367 10367 10368 10368 10369 10372 10375 10379 10383 10384 10386 10386 10385 10387 10392 10395 10396
10432 10428 10425 10421 10418 10414 10410 10406 10403 10400 10396 10392 10388 10384 10381 10378 10375 10373 10371 10368 10366 10363 10360 10357 10354 10352 10349 10348 10346 10345 10343 10342 10342 10342 10342 10342 10342 10342 10342 10343 10344 10347 10351 10355 10358 10360 10362 10360 10359 10364 10369 10370
10416 10412 10409 10405 10402 10398 10394 10390 10386 10383 10379 10375 10371 10367 10363 10360 10357 10354 10351 10349 10346 10344 10341 10337 10334 10331 10329 10327 10325 10324 10322 10320 10320 10320 10319 10319 10319 10318 10318 10318 10318 10320 10324 10327 10330 10332 10335 10336 10335 10336 10340 10342
10400 10396 10392 10389 10385 10381 10377 10373 10369 10366 10362 10357 10353 10350 10346 10342 10339 10335 10332 10330 10327 10325 10322 10319 10315 10312 10308 10306 10304 10303 10301 10299 10299 10297 10297 10297 10296 10295 10295 10294 10294 10294 10297 10299 10303 10305 10306 10310 10312 10311 10313 10314
10384 10379 10375 10372 10368 10364 10359 10355 10352 10348 10343 10338 10335 10331 10328 10324 10320 10316 10313 10310 10308 10306 10303 10300 10296 10292 10289 10286 10284 10283 10281 10278 10277 10276 10274 10274 10273 10272 10272 10273 10272 10270 10271 10272 10275 10279 10279 10281 10285 10287 10290 10289
10367 10362 10358 10354 10351 10347 10342 10338 10334 10330 10325 10320 10316 10313 10309 10305 10301 10297 10294 10291 10288 10286 10284 10281 10277 10273 10270 10267 10265 10264 10261 10258 10257 10255 10252 10251 10250 10249 10249 10250 10250 10248 10247 10247 10247 10251 10253 10254 10258 10263 10265 10265
10351 10346 10342 10338 10333 10328 10324 10320 10316 10312 10307 10302 10298 10294 10290 10287 10283 10278 10275 10272 10269 10267 10264 10261 10257 10254 10250 10248 10246 10244 10242 10239 10237 10235 10232 10231 10229 10228 10227 10227 10227 10226 10225 10223 10222 10223 10226 10228 10232 10237 10241 10241